User: anonymous   Login
Location: Buckeye Ditch
(40.9104°N, 122.9517°W)
Time: 08:27:48
(UTC+00:00)
Language:

Cosmos 1933 Rocket - Orbit

View from above orbital plane
View from above orbital plane
View from above satellite
View from above satellite

Ground track
Ground track

The orbit data is extracted from the following two-line orbital elements,

1 18959U 88020B   24165.17782496  .00000688  00000-0  78579-4 0  9994
2 18959  82.5380  44.3512 0016446   0.1184   0.0033 14.84540470959101
Epoch (UTC): 13 June 2024 04:16:04
Eccentricity: 0.0016446
inclination: 82.5380°
perigee height: 603 km
apogee height: 626 km
right ascension of ascending node: 44.3512°
argument of perigee: 0.1184°
revolutions per day: 14.84540470
mean anomaly at epoch: 0.0033°
orbit number at epoch: 95910

The dashed part of the orbit path shows where the satellite is in the earth's shadow,  

DLR